• In Uzbekistan
  • List of Countries
  • For 7 days
  • Water Temperature
  • Satellite Maps
  • Weather Map
  • Weather Widgets
  • user-avatar
    Login

    Hourly Weather Sagaleipie

    Today, 22 September, Saturday

    Time Temperature Precipitation Wind Pressure Humidity
    00:00 +20°C° 0.1 mm 0 mps 723 mmHg 99%
    01:00 +20°C° 0.1 mm 0 mps 723 mmHg 99%
    02:00 +20°C° 0.1 mm 0 mps 722 mmHg 99%
    03:00 +20°C° 0 mm 0 mps 723 mmHg 99%
    04:00 +20°C° 0 mm 0 mps 723 mmHg 99%
    05:00 +20°C° 0 mm 0 mps 723 mmHg 99%
    06:00 +21°C° 0 mm 0 mps 723 mmHg 96%
    07:00 +22°C° 0 mm 0 mps 724 mmHg 93%
    08:00 +25°C° 0 mm 1 mps 724 mmHg 90%
    09:00 +27°C° 0.3 mm 1 mps 724 mmHg 83%
    10:00 +29°C° 0.3 mm 1 mps 724 mmHg 76%
    11:00 +30°C° 0.3 mm 1 mps 723 mmHg 69%
    12:00 +30°C° 1.3 mm 1 mps 723 mmHg 74%
    13:00 +29°C° 1.3 mm 1 mps 722 mmHg 80%
    14:00 +29°C° 1.3 mm 1 mps 721 mmHg 85%
    15:00 +28°C° 1.5 mm 1 mps 722 mmHg 89%
    16:00 +27°C° 1.5 mm 1 mps 722 mmHg 92%
    17:00 +25°C° 1.5 mm 1 mps 722 mmHg 96%
    18:00 +25°C° 1 mm 1 mps 722 mmHg 97%
    19:00 +24°C° 1 mm 1 mps 723 mmHg 98%
    20:00 +24°C° 1 mm 1 mps 723 mmHg 98%
    21:00 +23°C° 0.5 mm 1 mps 724 mmHg 98%
    22:00 +23°C° 0.5 mm 1 mps 724 mmHg 99%
    23:00 +23°C° 0.5 mm 1 mps 724 mmHg 99%

    Tomorrow, 23 September, Sunday

    Time Temperature Precipitation Wind Pressure Humidity
    00:00 +23°C° 0.3 mm 1 mps 723 mmHg 99%
    01:00 +23°C° 0.3 mm 1 mps 723 mmHg 99%
    02:00 +21°C° 0.3 mm 0 mps 723 mmHg 99%
    03:00 +21°C° 0.1 mm 0 mps 723 mmHg 99%
    04:00 +21°C° 0.1 mm 0 mps 723 mmHg 99%
    05:00 +21°C° 0.1 mm 0 mps 723 mmHg 99%
    06:00 +21°C° 0.1 mm 0 mps 723 mmHg 98%
    07:00 +24°C° 0.1 mm 1 mps 724 mmHg 96%
    08:00 +25°C° 0.1 mm 1 mps 725 mmHg 95%
    09:00 +26°C° 0.4 mm 1 mps 724 mmHg 89%
    10:00 +26°C° 0.4 mm 0 mps 724 mmHg 84%
    11:00 +27°C° 0.4 mm 0 mps 724 mmHg 78%
    12:00 +27°C° 1.5 mm 0 mps 723 mmHg 82%
    13:00 +26°C° 1.5 mm 0 mps 723 mmHg 85%
    14:00 +26°C° 1.5 mm 0 mps 722 mmHg 89%
    15:00 +25°C° 0.6 mm 0 mps 722 mmHg 91%
    16:00 +24°C° 0.6 mm 0 mps 722 mmHg 94%
    17:00 +24°C° 0.6 mm 0 mps 722 mmHg 97%
    18:00 +23°C° 0.6 mm 0 mps 723 mmHg 97%
    19:00 +22°C° 0.6 mm 0 mps 723 mmHg 97%
    20:00 +22°C° 0.6 mm 0 mps 724 mmHg 98%
    21:00 +22°C° 0.5 mm 0 mps 724 mmHg 98%
    22:00 +21°C° 0.5 mm 0 mps 724 mmHg 98%
    23:00 +21°C° 0.5 mm 0 mps 724 mmHg 99%

    Day after tomorrow, 24 September, Monday

    Time Temperature Precipitation Wind Pressure Humidity
    00:00 +21°C° 0.1 mm 0 mps 723 mmHg 99%
    01:00 +21°C° 0.1 mm 0 mps 723 mmHg 99%
    02:00 +21°C° 0.1 mm 0 mps 722 mmHg 99%
    03:00 +21°C° 0 mm 0 mps 722 mmHg 99%
    04:00 +21°C° 0 mm 0 mps 722 mmHg 99%
    05:00 +21°C° 0 mm 0 mps 723 mmHg 99%
    06:00 +21°C° 0 mm 0 mps 723 mmHg 98%
    07:00 +22°C° 0 mm 0 mps 724 mmHg 96%
    08:00 +22°C° 0 mm 0 mps 724 mmHg 95%
    09:00 +24°C° 0.2 mm 0 mps 724 mmHg 89%
    10:00 +25°C° 0.2 mm 0 mps 724 mmHg 83%
    11:00 +27°C° 0.2 mm 0 mps 724 mmHg 76%
    12:00 +27°C° 1.3 mm 0 mps 723 mmHg 77%
    13:00 +27°C° 1.3 mm 0 mps 722 mmHg 78%
    14:00 +27°C° 1.3 mm 0 mps 721 mmHg 79%
    15:00 +26°C° 1.8 mm 0 mps 722 mmHg 84%
    16:00 +25°C° 1.8 mm 0 mps 722 mmHg 90%
    17:00 +24°C° 1.8 mm 0 mps 722 mmHg 96%
    18:00 +23°C° 1.8 mm 0 mps 722 mmHg 96%
    19:00 +24°C° 1.8 mm 1 mps 723 mmHg 97%
    20:00 +24°C° 1.8 mm 1 mps 724 mmHg 97%
    21:00 +21°C° 0.2 mm 0 mps 724 mmHg 98%
    22:00 +21°C° 0.2 mm 0 mps 724 mmHg 98%
    23:00 +21°C° 0.2 mm 0 mps 724 mmHg 99%

    25 September, Tuesday

    Time Temperature Precipitation Wind Pressure Humidity
    00:00 +21°C° 0.1 mm 0 mps 723 mmHg 99%
    01:00 +21°C° 0.1 mm 0 mps 723 mmHg 99%
    02:00 +21°C° 0.1 mm 0 mps 722 mmHg 99%
    03:00 +21°C° 0 mm 0 mps 722 mmHg 99%
    04:00 +21°C° 0 mm 0 mps 722 mmHg 99%
    05:00 +21°C° 0 mm 0 mps 723 mmHg 99%
    06:00 +21°C° 0 mm 0 mps 723 mmHg 98%
    07:00 +22°C° 0 mm 0 mps 724 mmHg 97%
    08:00 +22°C° 0 mm 0 mps 724 mmHg 96%
    09:00 +24°C° 0.1 mm 0 mps 724 mmHg 90%
    10:00 +25°C° 0.1 mm 0 mps 724 mmHg 84%
    11:00 +27°C° 0.1 mm 0 mps 724 mmHg 77%
    12:00 +28°C° 0 mm 0 mps 723 mmHg 72%
    13:00 +29°C° 0 mm 0 mps 722 mmHg 66%
    14:00 +30°C° 0 mm 0 mps 722 mmHg 60%
    15:00 +29°C° 0 mm 0 mps 722 mmHg 66%
    16:00 +28°C° 0 mm 0 mps 722 mmHg 71%
    17:00 +26°C° 0 mm 0 mps 722 mmHg 77%
    18:00 +25°C° 1.6 mm 0 mps 722 mmHg 84%
    19:00 +23°C° 1.6 mm 0 mps 723 mmHg 90%
    20:00 +22°C° 1.6 mm 0 mps 724 mmHg 97%
    21:00 +22°C° 2 mm 0 mps 724 mmHg 98%
    22:00 +21°C° 2 mm 0 mps 724 mmHg 98%
    23:00 +21°C° 2 mm 0 mps 724 mmHg 99%

    26 September, Wednesday

    Time Temperature Precipitation Wind Pressure Humidity
    00:00 +21°C° 0.5 mm 0 mps 723 mmHg 99%
    01:00 +21°C° 0.5 mm 0 mps 723 mmHg 99%
    02:00 +21°C° 0.5 mm 0 mps 722 mmHg 99%
    03:00 +21°C° 0.3 mm 0 mps 722 mmHg 99%
    04:00 +21°C° 0.3 mm 0 mps 723 mmHg 99%
    05:00 +21°C° 0.3 mm 0 mps 723 mmHg 99%
    06:00 +22°C° 0 mm 0 mps 723 mmHg 98%
    07:00 +22°C° 0 mm 0 mps 723 mmHg 97%
    08:00 +23°C° 0 mm 0 mps 724 mmHg 95%
    09:00 +25°C° 0.2 mm 0 mps 724 mmHg 84%
    10:00 +28°C° 0.2 mm 0 mps 723 mmHg 73%
    11:00 +30°C° 0.2 mm 0 mps 723 mmHg 61%
    12:00 +30°C° 0.7 mm 0 mps 722 mmHg 64%
    13:00 +30°C° 0.7 mm 0 mps 721 mmHg 67%
    14:00 +30°C° 0.7 mm 0 mps 721 mmHg 70%
    15:00 +28°C° 1.2 mm 0 mps 721 mmHg 77%
    16:00 +26°C° 1.2 mm 0 mps 721 mmHg 85%
    17:00 +25°C° 1.2 mm 0 mps 721 mmHg 93%
    18:00 +24°C° 0.5 mm 0 mps 722 mmHg 94%
    19:00 +23°C° 0.5 mm 0 mps 722 mmHg 95%
    20:00 +24°C° 0.5 mm 1 mps 723 mmHg 96%
    21:00 +24°C° 0.9 mm 1 mps 723 mmHg 97%
    22:00 +21°C° 0.9 mm 0 mps 723 mmHg 98%
    23:00 +21°C° 0.9 mm 0 mps 723 mmHg 99%

    27 September, Thursday

    Time Temperature Precipitation Wind Pressure Humidity
    00:00 +21°C° 1.2 mm 0 mps 722 mmHg 99%
    01:00 +21°C° 1.2 mm 0 mps 722 mmHg 99%
    02:00 +21°C° 1.2 mm 0 mps 722 mmHg 98%
    03:00 +21°C° 0.3 mm 0 mps 722 mmHg 98%
    04:00 +21°C° 0.3 mm 0 mps 722 mmHg 98%
    05:00 +21°C° 0.3 mm 0 mps 722 mmHg 98%
    06:00 +22°C° 0.4 mm 0 mps 723 mmHg 98%
    07:00 +22°C° 0.4 mm 0 mps 723 mmHg 97%
    08:00 +23°C° 0.4 mm 0 mps 724 mmHg 96%
    09:00 +23°C° 0.9 mm 0 mps 723 mmHg 96%
    10:00 +23°C° 0.9 mm 0 mps 723 mmHg 95%
    11:00 +24°C° 0.9 mm 0 mps 723 mmHg 94%
    12:00 +24°C° 1.1 mm 0 mps 723 mmHg 93%
    13:00 +24°C° 1.1 mm 0 mps 722 mmHg 92%
    14:00 +25°C° 1.1 mm 0 mps 721 mmHg 91%
    15:00 +24°C° 1.5 mm 0 mps 722 mmHg 93%
    16:00 +24°C° 1.5 mm 0 mps 722 mmHg 95%
    17:00 +25°C° 1.5 mm 1 mps 722 mmHg 96%
    18:00 +25°C° 0.8 mm 1 mps 723 mmHg 97%
    19:00 +24°C° 0.8 mm 1 mps 723 mmHg 98%
    20:00 +23°C° 0.8 mm 1 mps 724 mmHg 99%
    21:00 +23°C° 0 mm 1 mps 723 mmHg 99%
    22:00 +23°C° 0 mm 1 mps 723 mmHg 99%
    23:00 +23°C° 0 mm 1 mps 723 mmHg 99%
    Show more